Miscellaneous Local Product
Issued by NWS North Platte, NE

Home | Current Version | Previous Version | Text Only | Print | Product List | Glossary On
Versions: 1 2 3 4 5 6 7 8 9 10 11 12 13 14 15 16 17 18 19 20 21 22 23 24 25 26 27 28 29 30 31 32 33 34 35 36 37 38 39 40 41 42 43 44 45 46 47 48 49 50
000
AXUS43 KLBF 060310
MISLBF


WESTERN AND NORTH CENTRAL NEBRASKA HOURLY WEATHER ROUNDUP
NATIONAL WEATHER SERVICE NORTH PLATTE NE
1000 PM CDT TUE MAY 05 2015

***STATIONS NOT REPORTING VARIABLES SUCH AS SKY/WEATHER OR
PRESSURE ARE PROVIDED BY THE NEBRASKA DEPARTMENT OF
ROADS...RAWS...AND APRS NETWORKS...AND ARE NOT UNDER
NATIONAL WEATHER SERVICE QUALITY CONTROL***

...OBSERVATIONS IN AND NEAR THE EASTERN PANHANDLE OF NEBRASKA...

CITY           SKY/WX    TMP DP  RH WIND       PRES   REMARKS
PINE RIDGE     CLOUDY    56  49  77 SE14      29.86S
CHADRON        CLOUDY    57  50  77 SE9       29.84S
ALLIANCE       LGT RAIN  54  51  90 MISG      29.84F
SIDNEY         LGT RAIN  52  50  93 SE22G31   29.81F
WHITECLAY        N/A     55  49  80 SE14        N/A
CRESCENT LAKE    N/A     54  53  96 SE9G16      N/A
BIG SPRINGS      N/A     54  52  93 E18         N/A
$$

...OBSERVATIONS IN NORTH CENTRAL NEBRASKA...

CITY           SKY/WX    TMP DP  RH WIND       PRES   REMARKS
VALENTINE      CLOUDY    56  54  93 E7        29.90S
THEDFORD       LGT RAIN  58  55  90 SE13G18   29.91R
AINSWORTH      CLOUDY    57  57  99 NE6       29.91S
O`NEILL        CLOUDY    68  55  64 SE12      29.93R
ORD            LGT RAIN  64  51  62 SE12      29.91R
BROKEN BOW     LGT RAIN  59  54  83 SE6       29.90F
BROWNLEE         N/A     58  56  92 E9          N/A
VALENTINE NWR    N/A     54  54  99 E6          N/A
SPRINGVIEW       N/A     57  55  95 CALM        N/A
HALSEY           N/A     57  57 100 S6          N/A
BREWSTER         N/A     63  59  88 S9          N/A
ROSE             N/A     65  56  73 E14         N/A
NEWPORT          N/A     63  56  77 SE7         N/A
SARGENT          N/A     58  53  83 CALM        N/A
COMSTOCK         N/A     62  60  91 SE5         N/A
EWING            N/A     66  57  73 SE5         N/A
$$

...OBSERVATIONS IN SOUTHWEST NEBRASKA AND FAR NORTHEAST COLORADO...

CITY           SKY/WX    TMP DP  RH WIND       PRES   REMARKS
WRAY           RAIN     N/A N/A N/A E15G26    29.77S
IMPERIAL       LGT RAIN  54  53  97 SE18G26   29.81S
OGALLALA       DRIZZLE   54  52  94 E14G21    29.84S
NORTH PLATTE   CLOUDY    55  53  93 E12       29.87F
MCCOOK         LGT RAIN  58  56  93 E16       29.82F FOG
LEXINGTON      LGT RAIN  58  55  92 SE15      29.90S
PAXTON           N/A     55  53  92 E12         N/A
SUTHERLAND       N/A     51  48  90 E13         N/A
GOTHENBURG       N/A     56  52  87 SE12        N/A
CALLAWAY         N/A     56  54  92 SE15        N/A
$$

...NORTH PLATTE AREA...

CITY           SKY/WX    TMP DP  RH WIND       PRES   REMARKS
AIRPORT        CLOUDY    55  53  93 E12       29.87F
$$

...SOME WEATHER OBSERVATIONS FROM AROUND THE REGION...

CITY           SKY/WX    TMP DP  RH WIND       PRES   REMARKS
DENVER         LGT RAIN  50  48  93 N10       29.79S
LARAMIE        CLOUDY    44  40  85 SE17      29.84S
CHEYENNE       LGT RAIN  47  45  93 CALM      29.85S
SCOTTSBLUFF    LGT RAIN  54  54 100 SE14      29.83S
RAPID CITY     CLOUDY    60  51  72 S14       29.83S
PIERRE         LGT RAIN  58  56  93 SE9       29.88S
WINNER         CLOUDY    61  57  87 E3        29.91S
SIOUX FALLS    CLOUDY    63  59  87 SE14      29.99S
OMAHA          CLOUDY    72  58  61 SE15      29.98R
GRAND ISLAND   CLOUDY    63  56  78 S10       29.94R
KANSAS CITY    LGT RAIN  64  62  93 SE9       30.05S
WICHITA        LGT RAIN  64  60  87 SE17      29.94R
HAYS           CLOUDY    61  54  77 SE15      29.87R
LIBERAL        CLOUDY    55  50  82 SW9       29.85F
GOODLAND       CLOUDY    57  56  96 SE17      29.78R
$$



USA.gov is the U.S. government's official web portal to all federal, state and local government web resources and services.